Location: Strawberry
(45.6646°N, 111.9596°W)
Time: 01:24:20
(UTC+00:00)

Vanguard 1 Rocket - Pass Details

Date: 30 September 2022
Orbit: 650 x 4225 km, 34.3° (Epoch: 05 December)

Event Time Altitude Azimuth Distance (km) Brightness Sun altitude
Rises 03:48:12 0° 233° (SW) 7,854 12.5 -27.4°
Reaches altitude 10° 03:54:38 10° 228° (SW) 6,356 11.9 -28.4°
Maximum altitude 04:10:28 39° 168° (SSE) 2,966 9.6 -30.8°
Enters shadow 04:10:54 39° 164° (SSE) 2,925 9.5 -30.9°
